Location: Alsip
(41.6689°N, 87.7387°W)
Time: 14:21:50
(UTC+00:00)

Iridium 4 Rocket - Pass Details

Date: 14 July 2020
Orbit: 583 x 906 km, 86.9° (Epoch: 04 August)

Event Time Altitude Azimuth Distance (km) Brightness Sun altitude
Exits shadow 07:03:21 53° 250° (WSW) 1,045 3.9 -24.9°
Maximum altitude 07:03:57 55° 275° (W) 1,009 3.9 -24.9°
Drops below altitude 10° 07:09:16 10° 353° (N) 2,386 6.9 -24.6°
Sets 07:11:36 0° 358° (N) 3,271 7.9 -24.4°
